map of SBNT home
SBNT - Airport
Location
City:  Natal, Rio Grande do Norte, Brazil
Near (Alt.):Parnamirim
Name:Natal AFB
ICAO:SBNT

Details
Type:Airport (Aerodrome, Airfield)
Use:Public/Civil, Military
Latitude:5°54'30"S (-5.908332)
Longitude:35°14'57"W (-35.249166)
Elevation:167 ft (51 m)
Variation:21.19°W (WMM2015v2 magnetic declination)
0.08° annual change
Runways:3
Longest:8530 × 148 ft (2600 × 45 m), paved

Time
Time Zone:UTC-3
Local Time:

Weather
METAR:SBNT 041400Z 10009KT 9999 SCT025 32/23 Q1012
TAF:SBNT 041000Z 0412/0512 13015KT 8000 BKN023 TX32/0415Z TN26/0508Z
BECMG 0414/0416 SCT025
BECMG 0500/0502 15007KT
RMK PFM

Related Locations
Nearby:
Farthest:ULI: 12000 mi / 19311 km
Falalop Island [Ulithi Civil Airfield], Ulithi Atoll, YAP, FM

Find:

   beyond  
but within

Other Information
Maps:
NOTAMs:
Links:
Sources:

  
  • flag of Brazil
  • flag of Rio Grande do Norte
  • flag of Natal
  

Sectional Chart

Flight Planning
at skyvector.com

Satellite Image

Google Maps Satellite view

 

Copyright © 2004-2019 Karl L. Swartz. All rights reserved.
The Great Circle Mapper name and logo are trademarks of the Great Circle Mapper.
All other trademarks mentioned herein belong to their respective owners.
Please see credits for attibutions and further copyright information.

  Follow gcmap on Facebook Follow gcmap on Twitter GCmap on LinkedIn

hCard Microformat

Geo Microformat